• In Hungary
  • List of Countries
  • For 7 days
  • Water Temperature
  • Satellite Maps
  • Weather Map
  • News
  • Weather Widgets
  • user-avatar
    Login

    Hourly Weather Wiktoria

    Today, 20 November, Monday

    Time Temperature Precipitation Wind Pressure Humidity
    00:00 +19°C° 0 mm 2 mps 753 mmHg 66%
    01:00 +19°C° 0 mm 3 mps 754 mmHg 67%
    02:00 +18°C° 0 mm 3 mps 754 mmHg 70%
    03:00 +17°C° 0 mm 3 mps 754 mmHg 73%
    04:00 +16°C° 0 mm 2 mps 754 mmHg 76%
    05:00 +17°C° 0 mm 3 mps 755 mmHg 74%
    06:00 +18°C° 0 mm 3 mps 755 mmHg 72%
    07:00 +19°C° 0 mm 4 mps 755 mmHg 69%
    08:00 +21°C° 0 mm 4 mps 755 mmHg 62%
    09:00 +23°C° 0 mm 4 mps 755 mmHg 56%
    10:00 +27°C° 0 mm 3 mps 755 mmHg 47%
    11:00 +28°C° 0 mm 3 mps 755 mmHg 43%
    12:00 +29°C° 0 mm 3 mps 754 mmHg 39%
    13:00 +30°C° 0 mm 3 mps 754 mmHg 36%
    14:00 +30°C° 0 mm 3 mps 753 mmHg 34%
    15:00 +30°C° 0 mm 3 mps 753 mmHg 33%
    16:00 +31°C° 0 mm 2 mps 752 mmHg 30%
    17:00 +29°C° 0 mm 2 mps 752 mmHg 35%
    18:00 +27°C° 0 mm 2 mps 752 mmHg 41%
    19:00 +25°C° 0 mm 2 mps 753 mmHg 46%
    20:00 +24°C° 0 mm 2 mps 753 mmHg 46%
    21:00 +21°C° 0 mm 2 mps 753 mmHg 46%
    22:00 +20°C° 0 mm 2 mps 753 mmHg 46%
    23:00 +19°C° 0 mm 2 mps 753 mmHg 49%

    Tomorrow, 21 November, Tuesday

    Time Temperature Precipitation Wind Pressure Humidity
    00:00 +19°C° 0 mm 2 mps 753 mmHg 53%
    01:00 +18°C° 0 mm 3 mps 753 mmHg 56%
    02:00 +17°C° 0 mm 3 mps 754 mmHg 61%
    03:00 +17°C° 0 mm 3 mps 754 mmHg 66%
    04:00 +17°C° 0 mm 3 mps 754 mmHg 72%
    05:00 +18°C° 0 mm 4 mps 754 mmHg 71%
    06:00 +18°C° 0 mm 4 mps 754 mmHg 70%
    07:00 +19°C° 0 mm 4 mps 754 mmHg 69%
    08:00 +22°C° 0 mm 4 mps 754 mmHg 63%
    09:00 +25°C° 0 mm 3 mps 754 mmHg 56%
    10:00 +27°C° 0 mm 3 mps 754 mmHg 50%
    11:00 +28°C° 0 mm 3 mps 754 mmHg 45%
    12:00 +30°C° 0 mm 2 mps 753 mmHg 40%
    13:00 +31°C° 0 mm 2 mps 752 mmHg 35%
    14:00 +31°C° 0 mm 2 mps 752 mmHg 34%
    15:00 +32°C° 0 mm 1 mps 751 mmHg 32%
    16:00 +32°C° 0 mm 1 mps 751 mmHg 31%
    17:00 +30°C° 0 mm 1 mps 751 mmHg 36%
    18:00 +28°C° 0 mm 1 mps 751 mmHg 40%
    19:00 +26°C° 0 mm 1 mps 751 mmHg 45%
    20:00 +25°C° 0 mm 1 mps 751 mmHg 47%
    21:00 +24°C° 0 mm 2 mps 752 mmHg 50%
    22:00 +23°C° 0 mm 2 mps 752 mmHg 52%
    23:00 +21°C° 0 mm 2 mps 752 mmHg 55%

    Day after tomorrow, 22 November, Wednesday

    Time Temperature Precipitation Wind Pressure Humidity
    00:00 +20°C° 0 mm 2 mps 751 mmHg 58%
    01:00 +20°C° 0 mm 2 mps 751 mmHg 60%
    02:00 +19°C° 0 mm 3 mps 751 mmHg 62%
    03:00 +18°C° 0 mm 3 mps 751 mmHg 64%
    04:00 +18°C° 0 mm 3 mps 751 mmHg 66%
    05:00 +18°C° 0 mm 3 mps 751 mmHg 65%
    06:00 +19°C° 0 mm 4 mps 751 mmHg 63%
    07:00 +20°C° 0 mm 4 mps 752 mmHg 62%
    08:00 +22°C° 0 mm 4 mps 752 mmHg 56%
    09:00 +25°C° 0 mm 4 mps 751 mmHg 50%
    10:00 +27°C° 0 mm 4 mps 751 mmHg 45%
    11:00 +28°C° 0 mm 3 mps 751 mmHg 41%
    12:00 +30°C° 0 mm 2 mps 750 mmHg 37%
    13:00 +31°C° 0 mm 1 mps 749 mmHg 33%
    14:00 +32°C° 0 mm 1 mps 749 mmHg 31%
    15:00 +32°C° 0 mm 1 mps 748 mmHg 30%
    16:00 +32°C° 0 mm 1 mps 748 mmHg 29%
    17:00 +30°C° 0 mm 1 mps 748 mmHg 34%
    18:00 +28°C° 0 mm 1 mps 748 mmHg 39%
    19:00 +26°C° 0 mm 1 mps 748 mmHg 44%
    20:00 +25°C° 0.1 mm 1 mps 748 mmHg 48%
    21:00 +23°C° 0.1 mm 1 mps 748 mmHg 51%
    22:00 +21°C° 0.1 mm 2 mps 748 mmHg 54%
    23:00 +20°C° 0 mm 2 mps 748 mmHg 57%

    23 November, Thursday

    Time Temperature Precipitation Wind Pressure Humidity
    00:00 +19°C° 0 mm 2 mps 748 mmHg 61%
    01:00 +19°C° 0 mm 2 mps 748 mmHg 64%
    02:00 +18°C° 0.2 mm 2 mps 748 mmHg 68%
    03:00 +17°C° 0.2 mm 3 mps 747 mmHg 72%
    04:00 +16°C° 0.2 mm 3 mps 747 mmHg 76%
    05:00 +17°C° 0 mm 3 mps 748 mmHg 75%
    06:00 +18°C° 0 mm 4 mps 748 mmHg 73%
    07:00 +19°C° 0 mm 4 mps 748 mmHg 72%
    08:00 +22°C° 0 mm 4 mps 748 mmHg 62%
    09:00 +25°C° 0 mm 4 mps 748 mmHg 53%
    10:00 +28°C° 0 mm 3 mps 748 mmHg 44%
    11:00 +30°C° 0 mm 3 mps 748 mmHg 39%
    12:00 +31°C° 0 mm 2 mps 747 mmHg 34%
    13:00 +33°C° 0 mm 1 mps 747 mmHg 28%
    14:00 +33°C° 0 mm 1 mps 746 mmHg 27%
    15:00 +33°C° 0 mm 1 mps 746 mmHg 27%
    16:00 +33°C° 0 mm 1 mps 745 mmHg 26%
    17:00 +31°C° 0 mm 1 mps 745 mmHg 31%
    18:00 +29°C° 0 mm 2 mps 746 mmHg 36%
    19:00 +27°C° 0 mm 3 mps 746 mmHg 41%
    20:00 +25°C° 0.1 mm 3 mps 746 mmHg 46%
    21:00 +24°C° 0.1 mm 3 mps 746 mmHg 51%
    22:00 +21°C° 0.1 mm 3 mps 747 mmHg 56%
    23:00 +21°C° 0 mm 3 mps 747 mmHg 59%

    24 November, Friday

    Time Temperature Precipitation Wind Pressure Humidity
    00:00 +20°C° 0 mm 4 mps 747 mmHg 62%
    01:00 +19°C° 0 mm 4 mps 746 mmHg 65%
    02:00 +19°C° 0 mm 4 mps 747 mmHg 68%
    03:00 +18°C° 0 mm 4 mps 747 mmHg 71%
    04:00 +18°C° 0 mm 3 mps 747 mmHg 74%
    05:00 +19°C° 0 mm 3 mps 747 mmHg 70%
    06:00 +20°C° 0 mm 4 mps 748 mmHg 66%
    07:00 +21°C° 0 mm 4 mps 748 mmHg 63%
    08:00 +25°C° 0 mm 4 mps 748 mmHg 54%
    09:00 +28°C° 0 mm 4 mps 748 mmHg 46%
    10:00 +30°C° 0 mm 3 mps 748 mmHg 38%
    11:00 +33°C° 0 mm 3 mps 747 mmHg 33%
    12:00 +34°C° 0 mm 2 mps 747 mmHg 28%
    13:00 +36°C° 0 mm 2 mps 746 mmHg 24%
    14:00 +35°C° 0 mm 2 mps 746 mmHg 25%
    15:00 +35°C° 0 mm 2 mps 746 mmHg 26%
    16:00 +34°C° 0 mm 2 mps 746 mmHg 27%
    17:00 +31°C° 0 mm 2 mps 746 mmHg 30%
    18:00 +30°C° 0 mm 2 mps 747 mmHg 33%
    19:00 +28°C° 0 mm 2 mps 747 mmHg 37%
    20:00 +27°C° 0 mm 2 mps 747 mmHg 39%
    21:00 +26°C° 0 mm 2 mps 747 mmHg 41%
    22:00 +25°C° 0 mm 2 mps 748 mmHg 43%
    23:00 +24°C° 0 mm 3 mps 748 mmHg 47%

    25 November, Saturday

    Time Temperature Precipitation Wind Pressure Humidity
    00:00 +22°C° 0 mm 3 mps 748 mmHg 52%
    01:00 +22°C° 0 mm 3 mps 747 mmHg 56%
    02:00 +21°C° 0 mm 3 mps 747 mmHg 59%
    03:00 +21°C° 0 mm 3 mps 747 mmHg 61%
    04:00 +20°C° 0 mm 3 mps 747 mmHg 63%
    05:00 +21°C° 0 mm 3 mps 748 mmHg 59%
    06:00 +22°C° 0 mm 4 mps 748 mmHg 55%
    07:00 +23°C° 0 mm 4 mps 749 mmHg 51%
    08:00 +27°C° 0 mm 4 mps 749 mmHg 45%
    09:00 +29°C° 0 mm 4 mps 749 mmHg 38%
    10:00 +33°C° 0 mm 4 mps 749 mmHg 32%
    11:00 +33°C° 0 mm 4 mps 748 mmHg 30%
    12:00 +34°C° 0 mm 5 mps 748 mmHg 28%
    13:00 +35°C° 0 mm 5 mps 747 mmHg 26%
    14:00 +35°C° 0 mm 5 mps 747 mmHg 25%
    15:00 +35°C° 0 mm 5 mps 747 mmHg 24%
    16:00 +35°C° 0 mm 4 mps 747 mmHg 24%
    17:00 +33°C° 0 mm 4 mps 747 mmHg 30%
    18:00 +30°C° 0 mm 4 mps 747 mmHg 36%
    19:00 +28°C° 0 mm 4 mps 747 mmHg 42%
    20:00 +26°C° 0.2 mm 3 mps 747 mmHg 51%
    21:00 +24°C° 0.2 mm 2 mps 748 mmHg 60%
    22:00 +22°C° 0.2 mm 1 mps 748 mmHg 69%
    23:00 +21°C° 0.4 mm 2 mps 748 mmHg 71%
    Show more